Location: Baia Mare
(47.6567°N, 23.5850°E)
Time: 04:59:55
(UTC+02:00)

ISS - Pass Details

Date: 02 March 2018
Orbit: 402 x 407 km, 51.6° (Epoch: 23 February)

Event Time Altitude Azimuth Distance (km) Brightness Sun altitude
Exits shadow 05:34:05 19° 200° (SSW) 1,038 -2.0 -16.1°
Maximum altitude 05:35:55 35° 145° (SE) 677 -2.5 -15.8°
Drops below altitude 10° 05:38:56 10° 78° (ENE) 1,461 0.4 -15.3°
Sets 05:41:07 0° 69° (ENE) 2,324 1.6 -14.9°
